Regional Weather Roundup
Issued by NWS Charleston, SC

Home | Current Version | Previous Version | Text Only | Print | Product List | Glossary On
Versions: 1 2 3 4 5 6 7 8 9 10 11 12 13 14 15 16 17 18 19 20 21 22 23 24 25 26 27 28 29 30 31 32 33 34 35 36 37 38 39 40 41 42 43 44 45 46 47 48 49 50
000
ASUS42 KCHS 262227
RWRCHS

REGIONAL WEATHER ROUNDUP
NATIONAL WEATHER SERVICE CHARLESTON SC
600 PM EDT TUE SEP 26 2017

NOTE: "FAIR" INDICATES FEW OR NO CLOUDS BELOW 12,000 FEET WITH NO
SIGNIFICANT WEATHER AND/OR OBSTRUCTIONS TO VISIBILITY.

NOT ALL STATIONS ARE QUALITY CONTROLLED. USE DATA WITH CAUTION...
ESPECIALLY DEWPOINT OBSERVATIONS.

SCZ027-030-031-034>040-042>050-262300-
...SOUTHEAST SOUTH CAROLINA...

CITY           SKY/WX    TMP DP  RH WIND       PRES   REMARKS
N CHARLESTON   MOSUNNY   86  72  62 N9        29.81R HX  92
WATERFRONT PRK   N/A     87  72  60 N8        29.65S HX  93
JOHNS ISLAND   FAIR      88  73  62 NW7       29.81S HX  96
PINOPOLIS        N/A     84  77  79 N5        29.75S HX  94
MONCKS CORNER  FAIR      84  73  70 CALM      29.82R HX  91
SUMMERVILLE    FAIR      86  72  62 NW3       29.84R HX  92
BEAUFORT MCAS  PTSUNNY   89  73  59 NW12      29.83R HX  97
BEAUFORT ARPT  FAIR      88  72  58 NW6       29.82S HX  94
HILTON HEAD IS SUNNY     90  72  55 N9        29.83S HX  96
WALTERBORO     PTCLDY    86  72  62 NW3       29.84R HX  92
ALLENDALE      NOT AVBL

...SOUTHERN MIDLANDS AND PEE DEE...

CITY           SKY/WX    TMP DP  RH WIND       PRES   REMARKS
GEORGETOWN     FAIR      82  73  74 NW8       29.81R
KINGSTREE      FAIR      84  72  65 CALM      29.82R
ORANGEBURG     MOSUNNY   88  68  51 NW8       29.84S HX  91
BARNWELL       FAIR      90  72  55 N7        29.85S HX  96
AIKEN          FAIR      84  64  51 NW5       29.91R
MANNING        FAIR      82  63  51 MISG      29.82S
COLUMBIA       MOSUNNY   90  68  48 VRB6      29.84S HX  94
SUMTER         PTSUNNY   81  74  77 N6        29.82R
FLORENCE       SUNNY     86  72  62 N9        29.83R HX  92
MYRTLE BEACH   MOSUNNY   87  71  58 N16       29.80R HX  93
N MYRTLE BEACH SUNNY     86  71  60 N9        29.79R HX  91

$$

GAZ063-065-086>088-099>101-113>116-118-119-134>141-150-262300-
...SOUTHEAST GEORGIA...

CITY           SKY/WX    TMP DP  RH WIND       PRES   REMARKS
SAVANNAH ARPT  MOSUNNY   87  69  54 N6        29.84S HX  91
HUNTER AAF     MOSUNNY   88  70  55 NW8       29.81S HX  92
FORT STEWART   MOSUNNY   88  67  50 NW9       29.83S HX  91
STATESBORO     MOSUNNY   87  64  46 NW7       29.86R
SYLVANIA       CLEAR     88  72  58 N6        29.86S HX  94
CLAXTON        FAIR      88  69  53 W5        29.86R HX  92

...CSRA...CENTRAL AND FAR SOUTHEAST GEORGIA...

CITY           SKY/WX    TMP DP  RH WIND       PRES   REMARKS
THOMSON        SUNNY     85  66  52 NE6       29.94S
AUGUSTA-BUSH   SUNNY     91  67  44 N5        29.85S HX  94
AUGUSTA-DANIEL SUNNY     89  66  46 NW8       29.88S HX  91
SWAINSBORO     FAIR      86  68  54 N5        29.89R
VIDALIA        SUNNY     88  68  51 N5        29.87S HX  91
EASTMAN        FAIR      85  54  33 CALM      29.91S
HAZLEHURST     FAIR      89  51  27 N5        29.86S
ALMA           SUNNY     89  65  44 NW8       29.86S HX  91
WAYCROSS       SUNNY     87  62  42 N7        29.86R
JESUP          NOT AVBL
BAXLEY         FAIR      82  64  54 NW3       29.86S
BRUNSWICK      SUNNY     86  64  48 NW3       29.85S
SAINT SIMONS   SUNNY     85  73  67 SE5       29.84S HX  91

$$

SCZ027-028-034-036>038-045-046-048>050-GAZ119-141-262300-
...LAKE AND SUPPLEMENTAL COASTAL OBSERVATIONS...

STATION/POSITION TIME  TEMP    WIND        PRES    WAVE   SWELL
                       AIR SEA DIR/SP/G            HT/PER HT/PER/DIR
                 (UTC) (F)     (DEG/KT/KT) (MB)    (FT/S) (FT/S/D)
WINYAH BAY       2130   85     330/  6     1009.0S
LAKE MURRAY      NOT AVBL
ACE BASIN NERRS  2145   89     320/  2     1009.0S
FORT PULASKI     2200   86 81  330/  7/  8 1010.4
SAPELO ISLAND    2200   89        CALM     1010.0

$$

ANZ835-935-AMZ111-154-330-350-352-354-370-450-454-472-262300-
...C-MAN AND BUOY OBSERVATIONS...

STATION/POSITION TIME  TEMP    WIND        PRES    WAVE   SWELL
                       AIR SEA DIR/SP/G            HT/PER HT/PER/DIR
                 (UTC) (F)     (DEG/KT/KT) (MB)    (FT/S) (FT/S/D)
BUOY 41004       2210   80 81  320/  4/  8 1008.8
BUOY 41008       2150   82 82  230/  6/  8 1010.2R   3/12   3/ 40/12
FOLLY BEACH CMAN 2200   87     330/  7/  9 1010.2R
CAPERS NEARSHORE 2208   84 83   30/  8/ 10 1009.2R
FRIPP NEARSHORE  2208   85     340/  8/ 10 1015.4F


STATION/POSITION TIME  TEMP    WIND        PRES    WAVE   SWELL
                       AIR SEA DIR/SP/G            HT/PER HT/PER/DIR
                 (UTC) (F)     (DEG/KT/KT) (MB)    (FT/S) (FT/S/D)
5E ST. MARYS GA  2200      82                N/A     3/12   2/ 90/12
FRYING PAN BUOY  2210   82 81  340/ 16/ 19 1006.8
BUOY 41025       2150   77 81  360/ 33/ 41  999.0F  16/12  11/120/12
CAPE LOOKOUT NC  2200   80     350/ 22/ 27 1004.3R
BUOY 41002       2150   80 80  280/ 27/ 31 1002.4R  14/11   7/ 10/11
BUOY 41010       2210          300/ 10/ 12 1010.4
ST AUGUSTINE FL  2200   80 84   50/  8/  9 1011.4S


$$



USA.gov is the U.S. government's official web portal to all federal, state and local government web resources and services.